"datetime","temp","dp","rain_mm","uv","solar","mb","wind_mph","gust_mph","windchill","rh"
"2016-05-14 00:00:00",9.0,5.6,0.0,0.0,0,1015.6,4,6,"",79
"2016-05-14 00:01:00",9.0,5.4,0.0,0.0,0,1015.6,3,5,"",78
"2016-05-14 00:02:00",8.9,5.5,0.0,0.0,0,1015.6,3,8,"",79
"2016-05-14 00:03:00",8.9,5.5,0.0,0.0,0,1015.5,5,8,"",79
"2016-05-14 00:04:00",8.9,5.5,0.0,0.0,0,1015.5,3,9,"",79
"2016-05-14 00:05:00",8.9,5.3,0.0,0.0,0,1015.6,1,2,"",78
"2016-05-14 00:06:00",8.9,5.3,0.0,0.0,0,1015.6,3,6,"",78
"2016-05-14 00:07:00",8.9,5.3,0.0,0.0,0,1015.6,2,3,"",78
"2016-05-14 00:08:00",8.8,5.4,0.0,0.0,0,1015.6,3,6,"",79
"2016-05-14 00:09:00",8.9,5.5,0.0,0.0,0,1015.6,2,4,"",79
"2016-05-14 00:10:00",8.9,5.5,0.0,0.0,0,1015.6,4,6,"",79
"2016-05-14 00:11:00",8.9,5.5,0.0,0.0,0,1015.6,3,5,"",79
"2016-05-14 00:12:00",8.9,5.3,0.0,0.0,0,1015.5,3,6,"",78
"2016-05-14 00:13:00",8.9,5.5,0.0,0.0,0,1015.6,2,3,"",79
"2016-05-14 00:14:00",8.8,5.4,0.0,0.0,0,1015.6,3,6,"",79
"2016-05-14 00:15:00",8.8,5.2,0.0,0.0,0,1015.6,2,5,"",78
"2016-05-14 00:16:00",8.8,5.2,0.0,0.0,0,1015.6,2,3,"",78
"2016-05-14 00:17:00",8.8,5.4,0.0,0.0,0,1015.6,2,3,"",79
"2016-05-14 00:18:00",8.8,5.4,0.0,0.0,0,1015.7,4,6,"",79
"2016-05-14 00:19:00",8.8,5.2,0.0,0.0,0,1015.6,2,4,"",78
"2016-05-14 00:20:00",8.8,5.4,0.0,0.0,0,1015.6,1,3,"",79
"2016-05-14 00:21:00",8.8,5.4,0.0,0.0,0,1015.6,3,8,"",79
"2016-05-14 00:22:00",8.8,5.4,0.0,0.0,0,1015.6,4,8,"",79
"2016-05-14 00:23:00",8.8,5.4,0.0,0.0,0,1015.7,2,5,"",79
"2016-05-14 00:24:00",8.7,5.1,0.0,0.0,0,1015.7,3,4,"",78
"2016-05-14 00:25:00",8.7,5.1,0.0,0.0,0,1015.7,3,5,"",78
"2016-05-14 00:26:00",8.7,5.3,0.0,0.0,0,1015.7,2,4,"",79
"2016-05-14 00:27:00",8.7,5.3,0.0,0.0,0,1015.7,1,2,"",79
"2016-05-14 00:28:00",8.7,5.3,0.0,0.0,0,1015.7,1,3,"",79
"2016-05-14 00:29:00",8.7,5.3,0.0,0.0,0,1015.7,1,2,"",79
"2016-05-14 00:30:00",8.7,5.3,0.0,0.0,0,1015.7,2,5,"",79
"2016-05-14 00:31:00",8.7,5.3,0.0,0.0,0,1015.6,2,3,"",79
"2016-05-14 00:32:00",8.7,5.3,0.0,0.0,0,1015.7,4,9,"",79
"2016-05-14 00:33:00",8.7,5.3,0.0,0.0,0,1015.7,3,6,"",79
"2016-05-14 00:34:00",8.7,5.4,0.0,0.0,0,1015.7,4,6,"",80
"2016-05-14 00:35:00",8.7,5.3,0.0,0.0,0,1015.7,3,5,"",79
"2016-05-14 00:36:00",8.7,5.3,0.0,0.0,0,1015.7,2,4,"",79
"2016-05-14 00:37:00",8.7,5.3,0.0,0.0,0,1015.7,5,10,"",79
"2016-05-14 00:38:00",8.7,5.3,0.0,0.0,0,1015.7,2,4,"",79
"2016-05-14 00:39:00",8.7,5.3,0.0,0.0,0,1015.7,2,3,"",79
"2016-05-14 00:40:00",8.7,5.1,0.0,0.0,0,1015.7,2,3,"",78
"2016-05-14 00:41:00",8.7,5.3,0.0,0.0,0,1015.7,3,4,"",79
"2016-05-14 00:42:00",8.7,5.1,0.0,0.0,0,1015.7,1,3,"",78
"2016-05-14 00:43:00",8.7,5.1,0.0,0.0,0,1015.7,2,5,"",78
"2016-05-14 00:44:00",8.7,5.3,0.0,0.0,0,1015.6,2,5,"",79
"2016-05-14 00:45:00",8.7,5.3,0.0,0.0,0,1015.7,3,5,"",79
"2016-05-14 00:46:00",8.7,5.1,0.0,0.0,0,1015.7,1,3,"",78
"2016-05-14 00:47:00",8.7,5.1,0.0,0.0,0,1015.7,2,3,"",78
"2016-05-14 00:48:00",8.7,5.1,0.0,0.0,0,1015.7,2,3,"",78
"2016-05-14 00:49:00",8.7,5.1,0.0,0.0,0,1015.7,1,3,"",78
"2016-05-14 00:50:00",8.7,5.1,0.0,0.0,0,1015.7,3,5,"",78
"2016-05-14 00:51:00",8.7,5.1,0.0,0.0,0,1015.7,4,8,"",78
"2016-05-14 00:52:00",8.7,5.1,0.0,0.0,0,1015.7,3,5,"",78
"2016-05-14 00:53:00",8.7,5.3,0.0,0.0,0,1015.7,2,4,"",79
"2016-05-14 00:54:00",8.6,5.0,0.0,0.0,0,1015.8,4,5,"",78
"2016-05-14 00:55:00",8.7,5.3,0.0,0.0,0,1015.7,2,6,"",79
"2016-05-14 00:56:00",8.6,5.0,0.0,0.0,0,1015.7,3,7,"",78
"2016-05-14 00:57:00",8.6,5.0,0.0,0.0,0,1015.8,2,3,"",78
"2016-05-14 00:58:00",8.6,5.0,0.0,0.0,0,1015.8,1,3,"",78
"2016-05-14 00:59:00",8.6,5.0,0.0,0.0,0,1015.8,1,3,"",78
"2016-05-14 01:00:00",8.6,5.0,0.0,0.0,0,1015.8,2,3,"",78
"2016-05-14 01:01:00",8.6,5.0,0.0,0.0,0,1015.8,1,3,"",78
"2016-05-14 01:02:00",8.6,5.0,0.0,0.0,0,1015.8,2,6,"",78
"2016-05-14 01:03:00",8.6,5.2,0.0,0.0,0,1015.8,2,3,"",79
"2016-05-14 01:04:00",8.6,5.0,0.0,0.0,0,1015.9,5,11,"",78
"2016-05-14 01:05:00",8.6,5.0,0.0,0.0,0,1015.9,3,5,"",78
"2016-05-14 01:06:00",8.6,4.8,0.0,0.0,0,1015.9,2,2,"",77
"2016-05-14 01:07:00",8.6,4.8,0.0,0.0,0,1015.8,2,3,"",77
"2016-05-14 01:08:00",8.6,4.8,0.0,0.0,0,1015.8,1,2,"",77
"2016-05-14 01:09:00",8.6,4.8,0.0,0.0,0,1015.9,1,2,"",77
"2016-05-14 01:10:00",8.6,4.8,0.0,0.0,0,1015.8,1,1,"",77
"2016-05-14 01:11:00",8.6,4.8,0.0,0.0,0,1015.8,1,3,"",77
"2016-05-14 01:12:00",8.6,4.8,0.0,0.0,0,1015.8,1,3,"",77
"2016-05-14 01:13:00",8.6,4.8,0.0,0.0,0,1015.9,1,3,"",77
"2016-05-14 01:14:00",8.5,4.7,0.0,0.0,0,1015.9,3,5,"",77
"2016-05-14 01:15:00",8.5,4.7,0.0,0.0,0,1015.9,2,4,"",77
"2016-05-14 01:16:00",8.5,4.7,0.0,0.0,0,1015.8,4,6,"",77
"2016-05-14 01:17:00",8.5,4.5,0.0,0.0,0,1015.9,3,4,"",76
"2016-05-14 01:18:00",8.5,4.7,0.0,0.0,0,1015.8,2,3,"",77
"2016-05-14 01:19:00",8.5,4.7,0.0,0.0,0,1015.9,1,2,"",77
"2016-05-14 01:20:00",8.4,4.6,0.0,0.0,0,1016.0,1,2,"",77
"2016-05-14 01:21:00",8.4,4.6,0.0,0.0,0,1015.9,1,2,"",77
"2016-05-14 01:22:00",8.4,4.6,0.0,0.0,0,1015.9,1,2,"",77
"2016-05-14 01:23:00",8.3,4.5,0.0,0.0,0,1016.0,1,3,"",77
"2016-05-14 01:24:00",8.3,4.5,0.0,0.0,0,1016.0,3,5,"",77
"2016-05-14 01:25:00",8.2,4.6,0.0,0.0,0,1016.0,2,3,"",78
"2016-05-14 01:26:00",8.2,4.6,0.0,0.0,0,1016.0,1,2,"",78
"2016-05-14 01:27:00",8.2,4.6,0.0,0.0,0,1016.0,1,2,"",78
"2016-05-14 01:28:00",8.2,4.6,0.0,0.0,0,1016.0,2,3,"",78
"2016-05-14 01:29:00",8.2,4.6,0.0,0.0,0,1016.0,3,10,"",78
"2016-05-14 01:30:00",8.1,4.7,0.0,0.0,0,1016.0,4,10,"",79
"2016-05-14 01:31:00",8.1,4.3,0.0,0.0,0,1016.0,4,10,"",77
"2016-05-14 01:32:00",8.1,4.3,0.0,0.0,0,1016.0,3,6,"",77
"2016-05-14 01:33:00",8.1,4.3,0.0,0.0,0,1016.0,3,6,"",77
"2016-05-14 01:34:00",8.1,4.3,0.0,0.0,0,1016.0,3,5,"",77
"2016-05-14 01:35:00",8.1,4.3,0.0,0.0,0,1016.0,3,6,"",77
"2016-05-14 01:36:00",8.1,4.3,0.0,0.0,0,1016.1,2,5,"",77
"2016-05-14 01:37:00",8.1,4.3,0.0,0.0,0,1016.0,3,5,"",77
"2016-05-14 01:38:00",8.1,4.3,0.0,0.0,0,1016.0,2,3,"",77
"2016-05-14 01:39:00",8.1,4.3,0.0,0.0,0,1016.1,1,2,"",77
"2016-05-14 01:40:00",8.0,4.2,0.0,0.0,0,1016.1,1,2,"",77
"2016-05-14 01:41:00",8.0,4.2,0.0,0.0,0,1016.1,2,3,"",77
"2016-05-14 01:42:00",7.9,4.1,0.0,0.0,0,1016.1,2,4,"",77
"2016-05-14 01:43:00",7.9,4.3,0.0,0.0,0,1016.1,1,2,"",78
"2016-05-14 01:44:00",7.9,4.3,0.0,0.0,0,1016.1,0,1,"",78
"2016-05-14 01:45:00",7.8,4.2,0.0,0.0,0,1016.1,1,2,"",78
"2016-05-14 01:46:00",7.8,4.2,0.0,0.0,0,1016.1,1,2,"",78
"2016-05-14 01:47:00",7.8,4.2,0.0,0.0,0,1016.1,0,2,"",78
"2016-05-14 01:48:00",7.8,4.2,0.0,0.0,0,1016.2,0,1,"",78
"2016-05-14 01:49:00",7.8,4.4,0.0,0.0,0,1016.1,1,2,"",79
"2016-05-14 01:50:00",7.8,4.4,0.0,0.0,0,1016.2,2,5,"",79
"2016-05-14 01:51:00",7.8,4.4,0.0,0.0,0,1016.1,1,3,"",79
"2016-05-14 01:52:00",7.8,4.2,0.0,0.0,0,1016.1,2,3,"",78
"2016-05-14 01:53:00",7.8,4.2,0.0,0.0,0,1016.1,1,3,"",78
"2016-05-14 01:54:00",7.8,4.4,0.0,0.0,0,1016.1,2,4,"",79
"2016-05-14 01:55:00",7.8,4.4,0.0,0.0,0,1016.1,1,2,"",79
"2016-05-14 01:56:00",7.9,4.3,0.0,0.0,0,1016.1,1,1,"",78
"2016-05-14 01:57:00",7.9,4.3,0.0,0.0,0,1016.1,1,2,"",78
"2016-05-14 01:58:00",7.9,4.3,0.0,0.0,0,1016.1,3,4,"",78
"2016-05-14 01:59:00",8.0,4.4,0.0,0.0,0,1016.1,1,2,"",78
"2016-05-14 02:00:00",8.0,4.6,0.0,0.0,0,1016.1,3,5,"",79
"2016-05-14 02:01:00",8.1,4.7,0.0,0.0,0,1016.2,2,4,"",79
"2016-05-14 02:02:00",8.1,4.5,0.0,0.0,0,1016.1,2,2,"",78
"2016-05-14 02:03:00",8.1,4.5,0.0,0.0,0,1016.2,2,2,"",78
"2016-05-14 02:04:00",8.1,4.5,0.0,0.0,0,1016.2,1,2,"",78
"2016-05-14 02:05:00",8.1,4.5,0.0,0.0,0,1016.2,2,4,"",78
"2016-05-14 02:06:00",8.1,4.5,0.0,0.0,0,1016.2,1,2,"",78
"2016-05-14 02:07:00",8.1,4.5,0.0,0.0,0,1016.2,0,1,"",78
"2016-05-14 02:08:00",8.2,4.6,0.0,0.0,0,1016.2,3,8,"",78
"2016-05-14 02:09:00",8.2,4.6,0.0,0.0,0,1016.2,3,5,"",78
"2016-05-14 02:10:00",8.2,4.6,0.0,0.0,0,1016.2,3,5,"",78
"2016-05-14 02:11:00",8.2,4.6,0.0,0.0,0,1016.3,1,2,"",78
"2016-05-14 02:12:00",8.2,4.6,0.0,0.0,0,1016.2,2,4,"",78
"2016-05-14 02:13:00",8.2,4.6,0.0,0.0,0,1016.2,1,2,"",78
"2016-05-14 02:14:00",8.2,4.6,0.0,0.0,0,1016.2,2,5,"",78
"2016-05-14 02:15:00",8.2,4.6,0.0,0.0,0,1016.2,3,5,"",78
"2016-05-14 02:16:00",8.2,4.6,0.0,0.0,0,1016.3,4,8,"",78
"2016-05-14 02:17:00",8.2,4.6,0.0,0.0,0,1016.2,1,2,"",78
"2016-05-14 02:18:00",8.2,4.6,0.0,0.0,0,1016.2,1,1,"",78
"2016-05-14 02:19:00",8.2,4.6,0.0,0.0,0,1016.2,1,2,"",78
"2016-05-14 02:20:00",8.2,4.6,0.0,0.0,0,1016.2,2,4,"",78
"2016-05-14 02:21:00",8.2,4.6,0.0,0.0,0,1016.2,2,3,"",78
"2016-05-14 02:22:00",8.2,4.6,0.0,0.0,0,1016.2,1,3,"",78
"2016-05-14 02:23:00",8.2,4.6,0.0,0.0,0,1016.2,2,3,"",78
"2016-05-14 02:24:00",8.2,4.6,0.0,0.0,0,1016.2,3,7,"",78
"2016-05-14 02:25:00",8.3,4.7,0.0,0.0,0,1016.2,1,2,"",78
"2016-05-14 02:26:00",8.3,4.7,0.0,0.0,0,1016.2,2,4,"",78
"2016-05-14 02:27:00",8.3,4.7,0.0,0.0,0,1016.2,1,3,"",78
"2016-05-14 02:28:00",8.3,4.7,0.0,0.0,0,1016.2,3,4,"",78
"2016-05-14 02:29:00",8.2,4.8,0.0,0.0,0,1016.2,1,3,"",79
"2016-05-14 02:30:00",8.2,4.6,0.0,0.0,0,1016.2,1,1,"",78
"2016-05-14 02:31:00",8.2,4.8,0.0,0.0,0,1016.2,1,1,"",79
"2016-05-14 02:32:00",8.3,4.9,0.0,0.0,0,1016.2,1,1,"",79
"2016-05-14 02:33:00",8.3,4.9,0.0,0.0,0,1016.2,0,1,"",79
"2016-05-14 02:34:00",8.3,4.9,0.0,0.0,0,1016.2,0,1,"",79
"2016-05-14 02:35:00",8.3,5.1,0.0,0.0,0,1016.3,0,1,"",80
"2016-05-14 02:36:00",8.3,4.9,0.0,0.0,0,1016.3,2,5,"",79
"2016-05-14 02:37:00",8.3,4.9,0.0,0.0,0,1016.3,2,4,"",79
"2016-05-14 02:38:00",8.3,4.7,0.0,0.0,0,1016.3,3,5,"",78
"2016-05-14 02:39:00",8.3,4.9,0.0,0.0,0,1016.3,2,3,"",79
"2016-05-14 02:40:00",8.3,4.9,0.0,0.0,0,1016.3,2,4,"",79
"2016-05-14 02:41:00",8.3,4.9,0.0,0.0,0,1016.4,2,3,"",79
"2016-05-14 02:42:00",8.3,4.9,0.0,0.0,0,1016.4,3,5,"",79
"2016-05-14 02:43:00",8.3,4.9,0.0,0.0,0,1016.3,2,4,"",79
"2016-05-14 02:44:00",8.3,4.9,0.0,0.0,0,1016.3,3,5,"",79
"2016-05-14 02:45:00",8.3,4.9,0.0,0.0,0,1016.3,2,5,"",79
"2016-05-14 02:46:00",8.3,4.9,0.0,0.0,0,1016.3,2,4,"",79
"2016-05-14 02:47:00",8.3,4.9,0.0,0.0,0,1016.4,3,3,"",79
"2016-05-14 02:48:00",8.3,4.9,0.0,0.0,0,1016.4,2,7,"",79
"2016-05-14 02:49:00",8.3,4.9,0.0,0.0,0,1016.3,3,5,"",79
"2016-05-14 02:50:00",8.3,4.9,0.0,0.0,0,1016.4,2,3,"",79
"2016-05-14 02:51:00",8.3,4.9,0.0,0.0,0,1016.4,3,7,"",79
"2016-05-14 02:52:00",8.3,4.9,0.0,0.0,0,1016.4,2,5,"",79
"2016-05-14 02:53:00",8.3,5.1,0.0,0.0,0,1016.3,3,6,"",80
"2016-05-14 02:54:00",8.3,5.1,0.0,0.0,0,1016.4,1,3,"",80
"2016-05-14 02:55:00",8.3,5.1,0.0,0.0,0,1016.4,2,3,"",80
"2016-05-14 02:56:00",8.3,5.1,0.0,0.0,0,1016.4,4,9,"",80
"2016-05-14 02:57:00",8.3,5.1,0.0,0.0,0,1016.4,2,4,"",80
"2016-05-14 02:58:00",8.2,5.0,0.0,0.0,0,1016.4,3,4,"",80
"2016-05-14 02:59:00",8.2,5.0,0.0,0.0,0,1016.4,1,2,"",80
"2016-05-14 03:00:00",8.2,5.0,0.0,0.0,0,1016.4,2,5,"",80
"2016-05-14 03:01:00",8.2,4.8,0.0,0.0,0,1016.5,6,9,"",79
"2016-05-14 03:02:00",8.2,4.8,0.0,0.0,0,1016.4,5,11,"",79
"2016-05-14 03:03:00",8.2,4.8,0.0,0.0,0,1016.4,4,11,"",79
"2016-05-14 03:04:00",8.1,4.7,0.0,0.0,0,1016.3,3,8,"",79
"2016-05-14 03:05:00",8.1,4.7,0.0,0.0,0,1016.3,2,4,"",79
"2016-05-14 03:06:00",8.1,4.7,0.0,0.0,0,1016.3,1,2,"",79
"2016-05-14 03:07:00",8.1,4.7,0.0,0.0,0,1016.2,2,3,"",79
"2016-05-14 03:08:00",8.0,4.6,0.0,0.0,0,1016.2,4,9,"",79
"2016-05-14 03:09:00",8.0,4.6,0.0,0.0,0,1016.3,2,3,"",79
"2016-05-14 03:10:00",8.0,4.6,0.0,0.0,0,1016.2,1,2,"",79
"2016-05-14 03:11:00",8.0,4.6,0.0,0.0,0,1016.2,2,3,"",79
"2016-05-14 03:12:00",7.9,4.5,0.0,0.0,0,1016.2,1,3,"",79
"2016-05-14 03:13:00",7.9,4.5,0.0,0.0,0,1016.3,2,4,"",79
"2016-05-14 03:14:00",7.9,4.7,0.0,0.0,0,1016.2,2,3,"",80
"2016-05-14 03:15:00",7.9,4.7,0.0,0.0,0,1016.3,1,1,"",80
"2016-05-14 03:16:00",7.8,4.6,0.0,0.0,0,1016.3,1,2,"",80
"2016-05-14 03:17:00",7.8,4.6,0.0,0.0,0,1016.3,0,1,"",80
"2016-05-14 03:18:00",7.8,4.7,0.0,0.0,0,1016.3,1,2,"",81
"2016-05-14 03:19:00",7.8,4.7,0.0,0.0,0,1016.3,0,1,"",81
"2016-05-14 03:20:00",7.7,4.6,0.0,0.0,0,1016.3,1,2,"",81
"2016-05-14 03:21:00",7.7,4.6,0.0,0.0,0,1016.3,0,1,"",81
"2016-05-14 03:22:00",7.7,4.6,0.0,0.0,0,1016.3,1,3,"",81
"2016-05-14 03:23:00",7.7,4.6,0.0,0.0,0,1016.3,1,1,"",81
"2016-05-14 03:24:00",7.7,4.6,0.0,0.0,0,1016.4,1,1,"",81
"2016-05-14 03:25:00",7.6,4.5,0.0,0.0,0,1016.4,1,3,"",81
"2016-05-14 03:26:00",7.6,4.5,0.0,0.0,0,1016.4,3,5,"",81
"2016-05-14 03:27:00",7.6,4.5,0.0,0.0,0,1016.4,2,2,"",81
"2016-05-14 03:28:00",7.6,4.5,0.0,0.0,0,1016.4,1,2,"",81
"2016-05-14 03:29:00",7.6,4.5,0.0,0.0,0,1016.4,1,2,"",81
"2016-05-14 03:30:00",7.6,4.5,0.0,0.0,0,1016.4,1,2,"",81
"2016-05-14 03:31:00",7.5,4.4,0.0,0.0,0,1016.4,1,2,"",81
"2016-05-14 03:32:00",7.5,4.4,0.0,0.0,0,1016.5,1,1,"",81
"2016-05-14 03:33:00",7.4,4.5,0.0,0.0,0,1016.5,0,2,"",82
"2016-05-14 03:34:00",7.4,4.4,0.0,0.0,0,1016.4,0,1,"",81
"2016-05-14 03:35:00",7.3,4.4,0.0,0.0,0,1016.4,0,1,"",82
"2016-05-14 03:36:00",7.3,4.4,0.0,0.0,0,1016.4,1,2,"",82
"2016-05-14 03:37:00",7.3,4.4,0.0,0.0,0,1016.5,2,4,"",82
"2016-05-14 03:38:00",7.3,4.4,0.0,0.0,0,1016.5,1,2,"",82
"2016-05-14 03:39:00",7.3,4.4,0.0,0.0,0,1016.5,1,2,"",82
"2016-05-14 03:40:00",7.2,4.3,0.0,0.0,0,1016.5,0,1,"",82
"2016-05-14 03:41:00",7.2,4.3,0.0,0.0,0,1016.5,0,1,"",82
"2016-05-14 03:42:00",7.2,4.3,0.0,0.0,0,1016.5,1,2,"",82
"2016-05-14 03:43:00",7.2,4.3,0.0,0.0,0,1016.4,1,2,"",82
"2016-05-14 03:44:00",7.1,4.4,0.0,0.0,0,1016.4,1,1,"",83
"2016-05-14 03:45:00",7.1,4.4,0.0,0.0,0,1016.5,0,1,"",83
"2016-05-14 03:46:00",7.1,4.4,0.0,0.0,0,1016.5,1,2,"",83
"2016-05-14 03:47:00",7.1,4.4,0.0,0.0,0,1016.5,2,3,"",83
"2016-05-14 03:48:00",7.1,4.4,0.0,0.0,0,1016.5,2,2,"",83
"2016-05-14 03:49:00",7.1,4.4,0.0,0.0,0,1016.6,0,1,"",83
"2016-05-14 03:50:00",7.1,4.4,0.0,0.0,0,1016.6,1,1,"",83
"2016-05-14 03:51:00",7.2,4.5,0.0,0.0,0,1016.6,0,1,"",83
"2016-05-14 03:52:00",7.2,4.5,0.0,0.0,0,1016.6,0,1,"",83
"2016-05-14 03:53:00",7.1,4.4,0.0,0.0,0,1016.6,0,1,"",83
"2016-05-14 03:54:00",7.1,4.4,0.0,0.0,0,1016.6,0,1,"",83
"2016-05-14 03:55:00",7.1,4.4,0.0,0.0,0,1016.6,1,1,"",83
"2016-05-14 03:56:00",7.1,4.4,0.0,0.0,0,1016.6,0,1,"",83
"2016-05-14 03:57:00",7.1,4.4,0.0,0.0,0,1016.7,0,1,"",83
"2016-05-14 03:58:00",7.1,4.4,0.0,0.0,0,1016.7,0,1,"",83
"2016-05-14 03:59:00",7.1,4.4,0.0,0.0,0,1016.7,1,1,"",83
"2016-05-14 04:00:00",7.1,4.6,0.0,0.0,0,1016.7,0,1,"",84
"2016-05-14 04:01:00",7.1,4.6,0.0,0.0,0,1016.7,0,1,"",84
"2016-05-14 04:02:00",7.1,4.6,0.0,0.0,0,1016.8,1,1,"",84
"2016-05-14 04:03:00",7.1,4.6,0.0,0.0,0,1016.7,0,1,"",84
"2016-05-14 04:04:00",7.1,4.6,0.0,0.0,0,1016.7,0,1,"",84
"2016-05-14 04:05:00",7.1,4.6,0.0,0.0,0,1016.8,0,1,"",84
"2016-05-14 04:06:00",7.0,4.5,0.0,0.0,0,1016.8,0,0,"",84
"2016-05-14 04:07:00",7.0,4.5,0.0,0.0,0,1016.8,0,0,"",84
"2016-05-14 04:08:00",7.0,4.5,0.0,0.0,0,1016.9,0,0,"",84
"2016-05-14 04:09:00",7.0,4.5,0.0,0.0,0,1016.8,0,0,"",84
"2016-05-14 04:10:00",6.9,4.4,0.0,0.0,0,1016.8,0,0,"",84
"2016-05-14 04:11:00",6.9,4.4,0.0,0.0,0,1016.8,0,0,"",84
"2016-05-14 04:12:00",6.9,4.4,0.0,0.0,0,1016.8,0,0,"",84
"2016-05-14 04:13:00",6.9,4.4,0.0,0.0,0,1016.8,0,0,"",84
"2016-05-14 04:14:00",6.9,4.4,0.0,0.0,0,1016.9,0,0,"",84
"2016-05-14 04:15:00",6.9,4.4,0.0,0.0,0,1016.9,0,0,"",84
"2016-05-14 04:16:00",6.9,4.6,0.0,0.0,0,1016.9,0,0,"",85
"2016-05-14 04:17:00",6.9,4.6,0.0,0.0,0,1016.9,0,0,"",85
"2016-05-14 04:18:00",6.9,4.6,0.0,0.0,0,1016.9,0,0,"",85
"2016-05-14 04:19:00",6.9,4.6,0.0,0.0,0,1016.9,0,0,"",85
"2016-05-14 04:20:00",6.9,4.6,0.0,0.0,0,1016.9,0,0,"",85
"2016-05-14 04:21:00",6.9,4.6,0.0,0.0,0,1016.9,0,0,"",85
"2016-05-14 04:22:00",6.9,4.6,0.0,0.0,0,1016.9,0,0,"",85
"2016-05-14 04:23:00",6.9,4.6,0.0,0.0,0,1016.9,0,0,"",85
"2016-05-14 04:24:00",6.9,4.6,0.0,0.0,0,1016.9,0,0,"",85
"2016-05-14 04:25:00",6.9,4.6,0.0,0.0,0,1016.9,0,0,"",85
"2016-05-14 04:26:00",6.9,4.6,0.0,0.0,0,1016.9,0,2,"",85
"2016-05-14 04:27:00",7.0,4.7,0.0,0.0,0,1016.8,1,2,"",85
"2016-05-14 04:28:00",7.0,4.7,0.0,0.0,0,1016.9,0,1,"",85
"2016-05-14 04:29:00",7.0,4.7,0.0,0.0,0,1016.9,1,2,"",85
"2016-05-14 04:30:00",7.1,4.7,0.0,0.0,0,1016.9,1,2,"",85
"2016-05-14 04:31:00",7.1,4.7,0.0,0.0,0,1016.9,2,3,"",85
"2016-05-14 04:32:00",7.1,4.7,0.0,0.0,0,1016.9,2,3,"",85
"2016-05-14 04:33:00",7.2,4.8,0.0,0.0,0,1016.9,3,5,"",85
"2016-05-14 04:34:00",7.2,4.8,0.0,0.0,0,1016.9,2,4,"",85
"2016-05-14 04:35:00",7.2,4.8,0.0,0.0,0,1016.9,0,1,"",85
"2016-05-14 04:36:00",7.2,4.8,0.0,0.0,0,1016.9,1,2,"",85
"2016-05-14 04:37:00",7.2,4.7,0.0,0.0,0,1016.9,1,1,"",84
"2016-05-14 04:38:00",7.2,4.7,0.0,0.0,0,1016.9,1,2,"",84
"2016-05-14 04:39:00",7.2,4.7,0.0,0.0,0,1016.9,1,2,"",84
"2016-05-14 04:40:00",7.2,4.7,0.0,0.0,0,1016.9,1,2,"",84
"2016-05-14 04:41:00",7.2,4.7,0.0,0.0,0,1016.9,1,2,"",84
"2016-05-14 04:42:00",7.1,4.6,0.0,0.0,0,1016.9,1,2,"",84
"2016-05-14 04:43:00",7.1,4.6,0.0,0.0,0,1016.9,2,3,"",84
"2016-05-14 04:44:00",7.1,4.6,0.0,0.0,0,1016.9,1,3,"",84
"2016-05-14 04:45:00",7.1,4.4,0.0,0.0,0,1016.9,0,1,"",83
"2016-05-14 04:46:00",7.0,4.3,0.0,0.0,0,1016.9,1,2,"",83
"2016-05-14 04:47:00",7.0,4.3,0.0,0.0,0,1017.0,1,1,"",83
"2016-05-14 04:48:00",6.9,4.2,0.0,0.0,0,1017.0,1,1,"",83
"2016-05-14 04:49:00",6.9,4.4,0.0,0.0,0,1017.0,1,2,"",84
"2016-05-14 04:50:00",6.8,4.3,0.0,0.0,0,1017.0,2,3,"",84
"2016-05-14 04:51:00",6.8,4.3,0.0,0.0,0,1017.0,1,2,"",84
"2016-05-14 04:52:00",6.8,4.3,0.0,0.0,0,1017.0,0,1,"",84
"2016-05-14 04:53:00",6.8,4.3,0.0,0.0,0,1017.0,0,1,"",84
"2016-05-14 04:54:00",6.7,4.2,0.0,0.0,0,1017.0,1,2,"",84
"2016-05-14 04:55:00",6.7,4.2,0.0,0.0,0,1016.9,0,1,"",84
"2016-05-14 04:56:00",6.7,4.2,0.0,0.0,0,1017.0,0,1,"",84
"2016-05-14 04:57:00",6.7,4.2,0.0,0.0,0,1017.0,1,3,"",84
"2016-05-14 04:58:00",6.7,4.2,0.0,0.0,0,1017.0,2,3,"",84
"2016-05-14 04:59:00",6.6,4.1,0.0,0.0,0,1017.0,0,1,"",84
"2016-05-14 05:00:00",6.6,4.1,0.0,0.0,0,1017.0,0,1,"",84
"2016-05-14 05:01:00",6.6,4.1,0.0,0.0,0,1017.0,1,2,"",84
"2016-05-14 05:02:00",6.6,4.1,0.0,0.0,0,1017.0,1,2,"",84
"2016-05-14 05:03:00",6.6,4.1,0.0,0.0,0,1017.0,0,1,"",84
"2016-05-14 05:04:00",6.5,4.0,0.0,0.0,0,1017.1,1,2,"",84
"2016-05-14 05:05:00",6.5,4.0,0.0,0.0,0,1017.1,1,1,"",84
"2016-05-14 05:06:00",6.5,4.2,0.0,0.0,0,1017.0,0,1,"",85
"2016-05-14 05:07:00",6.4,4.1,0.0,0.0,0,1017.0,0,1,"",85
"2016-05-14 05:08:00",6.4,4.1,0.0,0.0,0,1017.0,1,1,"",85
"2016-05-14 05:09:00",6.4,4.1,0.0,0.0,0,1017.0,0,1,"",85
"2016-05-14 05:10:00",6.4,4.1,0.0,0.0,0,1017.1,0,1,"",85
"2016-05-14 05:11:00",6.4,4.1,0.0,0.0,0,1017.1,0,1,"",85
"2016-05-14 05:12:00",6.3,4.0,0.0,0.0,0,1017.0,1,2,"",85
"2016-05-14 05:13:00",6.3,4.0,0.0,0.0,0,1017.0,0,0,"",85
"2016-05-14 05:14:00",6.3,4.0,0.0,0.0,0,1017.1,0,0,"",85
"2016-05-14 05:15:00",6.3,4.0,0.0,0.0,0,1017.0,1,2,"",85
"2016-05-14 05:16:00",6.3,4.0,0.0,0.0,5,1017.1,1,1,"",85
"2016-05-14 05:17:00",6.3,4.0,0.0,0.0,5,1017.1,0,1,"",85
"2016-05-14 05:18:00",6.2,3.9,0.0,0.0,5,1017.1,0,1,"",85
"2016-05-14 05:19:00",6.2,3.9,0.0,0.0,5,1017.1,0,1,"",85
"2016-05-14 05:20:00",6.2,4.0,0.0,0.0,5,1017.1,1,2,"",86
"2016-05-14 05:21:00",6.2,4.0,0.0,0.0,7,1017.1,1,2,"",86
"2016-05-14 05:22:00",6.2,4.0,0.0,0.0,7,1017.1,0,0,"",86
"2016-05-14 05:23:00",6.2,4.0,0.0,0.0,7,1017.1,0,1,"",86
"2016-05-14 05:24:00",6.2,4.0,0.0,0.0,9,1017.1,0,1,"",86
"2016-05-14 05:25:00",6.1,3.9,0.0,0.0,9,1017.1,0,1,"",86
"2016-05-14 05:26:00",6.1,3.9,0.0,0.0,11,1017.1,0,0,"",86
"2016-05-14 05:27:00",6.1,4.1,0.0,0.0,11,1017.1,0,1,"",87
"2016-05-14 05:28:00",6.1,4.1,0.0,0.0,11,1017.1,0,1,"",87
"2016-05-14 05:29:00",6.1,4.1,0.0,0.0,11,1017.1,0,0,"",87
"2016-05-14 05:30:00",6.1,4.1,0.0,0.0,11,1017.1,0,1,"",87
"2016-05-14 05:31:00",6.2,4.2,0.0,0.0,12,1017.1,0,1,"",87
"2016-05-14 05:32:00",6.2,4.2,0.0,0.0,12,1017.1,1,2,"",87
"2016-05-14 05:33:00",6.2,4.4,0.0,0.0,12,1017.1,0,1,"",88
"2016-05-14 05:34:00",6.2,4.2,0.0,0.0,12,1017.1,1,1,"",87
"2016-05-14 05:35:00",6.2,4.2,0.0,0.0,14,1017.2,0,1,"",87
"2016-05-14 05:36:00",6.2,4.2,0.0,0.0,14,1017.1,0,0,"",87
"2016-05-14 05:37:00",6.3,4.5,0.0,0.0,14,1017.2,0,1,"",88
"2016-05-14 05:38:00",6.3,4.3,0.0,0.0,14,1017.2,1,2,"",87
"2016-05-14 05:39:00",6.3,4.3,0.0,0.0,16,1017.2,1,2,"",87
"2016-05-14 05:40:00",6.3,4.3,0.0,0.0,18,1017.2,0,1,"",87
"2016-05-14 05:41:00",6.4,4.4,0.0,0.0,18,1017.3,0,1,"",87
"2016-05-14 05:42:00",6.4,4.4,0.0,0.0,18,1017.3,0,1,"",87
"2016-05-14 05:43:00",6.4,4.4,0.0,0.0,18,1017.3,0,0,"",87
"2016-05-14 05:44:00",6.5,4.5,0.0,0.0,18,1017.3,0,0,"",87
"2016-05-14 05:45:00",6.5,4.5,0.0,0.0,21,1017.3,0,0,"",87
"2016-05-14 05:46:00",6.6,4.6,0.0,0.0,21,1017.3,0,1,"",87
"2016-05-14 05:47:00",6.6,4.6,0.0,0.0,23,1017.3,0,1,"",87
"2016-05-14 05:48:00",6.6,4.6,0.0,0.0,25,1017.3,0,0,"",87
"2016-05-14 05:49:00",6.6,4.6,0.0,0.0,26,1017.3,0,1,"",87
"2016-05-14 05:50:00",6.7,4.5,0.0,0.0,28,1017.3,1,2,"",86
"2016-05-14 05:51:00",6.7,4.5,0.0,0.0,30,1017.3,0,1,"",86
"2016-05-14 05:52:00",6.7,4.5,0.0,0.0,30,1017.4,1,1,"",86
"2016-05-14 05:53:00",6.7,4.5,0.0,0.0,33,1017.3,0,1,"",86
"2016-05-14 05:54:00",6.7,4.5,0.0,0.0,35,1017.3,0,1,"",86
"2016-05-14 05:55:00",6.7,4.5,0.0,0.0,39,1017.4,0,1,"",86
"2016-05-14 05:56:00",6.8,4.6,0.0,0.0,42,1017.4,0,1,"",86
"2016-05-14 05:57:00",6.8,4.6,0.0,0.0,46,1017.3,1,2,"",86
"2016-05-14 05:58:00",6.8,4.6,0.0,0.0,46,1017.4,1,1,"",86
"2016-05-14 05:59:00",6.8,4.6,0.0,0.0,44,1017.3,0,1,"",86
"2016-05-14 06:00:00",6.8,4.6,0.0,0.0,40,1017.4,1,2,"",86
"2016-05-14 06:01:00",6.9,4.7,0.0,0.0,39,1017.3,1,2,"",86
"2016-05-14 06:02:00",6.9,4.6,0.0,0.0,35,1017.3,1,2,"",85
"2016-05-14 06:03:00",6.9,4.6,0.0,0.0,33,1017.4,1,2,"",85
"2016-05-14 06:04:00",6.9,4.6,0.0,0.0,33,1017.4,0,1,"",85
"2016-05-14 06:05:00",6.9,4.4,0.0,0.0,32,1017.4,0,1,"",84
"2016-05-14 06:06:00",6.8,4.3,0.0,0.0,32,1017.4,0,1,"",84
"2016-05-14 06:07:00",6.8,4.3,0.0,0.0,30,1017.4,0,0,"",84
"2016-05-14 06:08:00",6.8,4.3,0.0,0.0,28,1017.4,0,0,"",84
"2016-05-14 06:09:00",6.8,4.3,0.0,0.0,28,1017.4,0,0,"",84
"2016-05-14 06:10:00",6.8,4.3,0.0,0.0,28,1017.4,0,0,"",84
"2016-05-14 06:11:00",6.8,4.3,0.0,0.0,28,1017.4,0,0,"",84
"2016-05-14 06:12:00",6.8,4.3,0.0,0.0,28,1017.4,0,0,"",84
"2016-05-14 06:13:00",6.8,4.3,0.0,0.0,30,1017.4,0,0,"",84
"2016-05-14 06:14:00",6.8,4.3,0.0,0.0,30,1017.4,0,0,"",84
"2016-05-14 06:15:00",6.7,4.2,0.0,0.0,28,1017.4,0,0,"",84
"2016-05-14 06:16:00",6.7,4.2,0.0,0.0,26,1017.4,0,0,"",84
"2016-05-14 06:17:00",6.7,4.2,0.0,0.0,25,1017.4,0,0,"",84
"2016-05-14 06:18:00",6.7,4.2,0.0,0.0,23,1017.5,0,0,"",84
"2016-05-14 06:19:00",6.7,4.2,0.0,0.0,23,1017.5,1,2,"",84
"2016-05-14 06:20:00",6.7,4.0,0.0,0.0,25,1017.5,1,2,"",83
"2016-05-14 06:21:00",6.7,4.0,0.0,0.0,25,1017.5,3,4,"",83
"2016-05-14 06:22:00",6.7,4.0,0.0,0.0,25,1017.5,2,3,"",83
"2016-05-14 06:23:00",6.7,3.8,0.0,0.0,25,1017.5,2,4,"",82
"2016-05-14 06:24:00",6.7,3.8,0.0,0.0,25,1017.5,2,3,"",82
"2016-05-14 06:25:00",6.7,4.0,0.0,0.0,25,1017.5,2,3,"",83
"2016-05-14 06:26:00",6.7,4.0,0.0,0.0,25,1017.5,1,1,"",83
"2016-05-14 06:27:00",6.7,3.8,0.0,0.0,26,1017.6,1,2,"",82
"2016-05-14 06:28:00",6.7,3.8,0.0,0.0,26,1017.5,2,5,"",82
"2016-05-14 06:29:00",6.8,3.9,0.0,0.0,30,1017.5,1,3,"",82
"2016-05-14 06:30:00",6.8,3.9,0.0,0.0,30,1017.6,1,1,"",82
"2016-05-14 06:31:00",6.8,3.9,0.0,0.0,33,1017.6,1,2,"",82
"2016-05-14 06:32:00",6.7,3.8,0.0,0.0,33,1017.6,2,3,"",82
"2016-05-14 06:33:00",6.7,3.8,0.0,0.0,37,1017.6,1,2,"",82
"2016-05-14 06:34:00",6.7,3.8,0.0,0.0,39,1017.6,2,5,"",82
"2016-05-14 06:35:00",6.7,3.7,0.0,0.0,39,1017.6,2,3,"",81
"2016-05-14 06:36:00",6.7,3.8,0.0,0.0,40,1017.6,2,5,"",82
"2016-05-14 06:37:00",6.7,3.8,0.0,0.0,44,1017.6,2,3,"",82
"2016-05-14 06:38:00",6.7,3.8,0.0,0.0,46,1017.6,1,2,"",82
"2016-05-14 06:39:00",6.7,3.8,0.0,0.0,46,1017.6,1,3,"",82
"2016-05-14 06:40:00",6.7,3.8,0.0,0.0,46,1017.6,1,2,"",82
"2016-05-14 06:41:00",6.8,3.9,0.0,0.0,46,1017.6,2,4,"",82
"2016-05-14 06:42:00",6.8,3.9,0.0,0.0,46,1017.6,2,3,"",82
"2016-05-14 06:43:00",6.8,3.8,0.0,0.0,47,1017.6,3,6,"",81
"2016-05-14 06:44:00",6.8,3.8,0.0,0.0,47,1017.7,2,3,"",81
"2016-05-14 06:45:00",6.8,3.8,0.0,0.0,49,1017.7,1,3,"",81
"2016-05-14 06:46:00",6.9,3.9,0.0,0.0,49,1017.7,4,6,"",81
"2016-05-14 06:47:00",6.9,3.7,0.0,0.0,51,1017.8,1,2,"",80
"2016-05-14 06:48:00",6.9,3.7,0.0,0.0,51,1017.7,1,1,"",80
"2016-05-14 06:49:00",7.0,3.8,0.0,0.0,51,1017.8,2,3,"",80
"2016-05-14 06:50:00",7.0,3.8,0.0,0.0,54,1017.8,2,4,"",80
"2016-05-14 06:51:00",7.0,3.8,0.0,0.0,56,1017.8,1,4,"",80
"2016-05-14 06:52:00",7.0,3.6,0.0,0.0,53,1017.8,1,2,"",79
"2016-05-14 06:53:00",7.0,3.6,0.0,0.0,51,1017.8,1,1,"",79
"2016-05-14 06:54:00",7.0,3.4,0.0,0.0,51,1017.8,1,1,"",78
"2016-05-14 06:55:00",7.1,3.5,0.0,0.0,51,1017.8,1,2,"",78
"2016-05-14 06:56:00",7.1,3.5,0.0,0.0,51,1017.8,0,2,"",78